TimeCDT,TemperatureF,Dew PointF,Humidity,Sea Level PressureIn,VisibilityMPH,Wind Direction,Wind SpeedMPH,Gust SpeedMPH,PrecipitationIn,Events,Conditions,WindDirDegrees,DateUTC
12:56 AM,45.0,43.0,93,29.84,-9999.0,Calm,Calm,-,N/A,,Unknown,0,2013-06-11 05:56:00
1:56 AM,43.0,42.1,97,29.83,-9999.0,Calm,Calm,-,N/A,,Unknown,0,2013-06-11 06:56:00
2:56 AM,46.0,44.1,93,29.85,-9999.0,Calm,Calm,-,0.02,,Unknown,0,2013-06-11 07:56:00
3:56 AM,44.1,42.1,93,29.85,-9999.0,Calm,Calm,-,0.03,,Unknown,0,2013-06-11 08:56:00
4:56 AM,42.1,41.0,96,29.86,-9999.0,Calm,Calm,-,N/A,,Unknown,0,2013-06-11 09:56:00
5:56 AM,42.1,41.0,96,29.85,-9999.0,Calm,Calm,-,N/A,,Unknown,0,2013-06-11 10:56:00
6:56 AM,44.1,43.0,96,29.87,-9999.0,West,4.6,-,N/A,,Unknown,260,2013-06-11 11:56:00
7:56 AM,41.0,39.9,96,29.86,-9999.0,SW,3.5,-,N/A,,Unknown,230,2013-06-11 12:56:00
8:56 AM,44.1,43.0,96,29.86,-9999.0,Variable,3.5,-,N/A,,Unknown,0,2013-06-11 13:56:00
9:56 AM,44.1,42.1,93,29.85,-9999.0,West,4.6,-,N/A,,Unknown,260,2013-06-11 14:56:00
10:56 AM,44.1,42.1,93,29.85,-9999.0,SSW,3.5,-,N/A,,Unknown,210,2013-06-11 15:56:00
11:56 AM,45.0,42.1,90,29.87,-9999.0,Variable,3.5,-,N/A,,Unknown,0,2013-06-11 16:56:00
12:56 PM,46.0,42.1,86,29.85,-9999.0,WSW,10.4,-,N/A,,Unknown,240,2013-06-11 17:56:00
1:56 PM,46.0,41.0,83,29.84,-9999.0,South,4.6,-,N/A,,Unknown,190,2013-06-11 18:56:00
2:56 PM,50.0,46.0,86,29.84,-9999.0,WSW,8.1,-,N/A,,Unknown,240,2013-06-11 19:56:00
3:56 PM,55.9,48.9,77,29.84,-9999.0,WSW,9.2,-,N/A,,Unknown,250,2013-06-11 20:56:00
4:56 PM,59.0,51.1,75,29.84,-9999.0,West,5.8,-,N/A,,Unknown,260,2013-06-11 21:56:00
5:56 PM,54.0,48.9,83,29.85,-9999.0,WSW,6.9,-,N/A,,Unknown,240,2013-06-11 22:56:00
6:56 PM,54.0,48.0,80,29.84,-9999.0,WSW,5.8,-,N/A,,Unknown,250,2013-06-11 23:56:00
7:56 PM,54.0,48.9,83,29.85,-9999.0,SW,4.6,-,N/A,,Unknown,230,2013-06-12 00:56:00
8:56 PM,48.0,45.0,89,29.87,-9999.0,WSW,4.6,-,N/A,,Unknown,250,2013-06-12 01:56:00
9:56 PM,48.0,44.1,86,29.89,-9999.0,WSW,3.5,-,N/A,,Unknown,250,2013-06-12 02:56:00
10:56 PM,44.1,42.1,93,29.89,-9999.0,Calm,Calm,-,N/A,,Unknown,0,2013-06-12 03:56:00
11:56 PM,50.0,48.0,93,29.88,-9999.0,Calm,Calm,-,N/A,,Unknown,0,2013-06-12 04:56:00